Flag for Russia Weather past 2 weeks in Chelyabinsk, Russia

Now
52 °F

Sleet. Overcast.


Feels Like: 51 °F
Forecast: 54 / 66 °F
Wind: 3 mph from Southeast

Location: Chelyabinsk-Balandino

Current Time: May 6, 2015 at 12:28:39 AM

Latest Report: May 6, 2015 at 12:00 AM


Visibility: 0 mi

Pressure: 29.77 "Hg

Humidity: 100%

Dew point: 52 °F

Location of ChelyabinskLocation

Historic Weather in Chelyabinsk — Graph

°F

Chelyabinsk temperature yesterday

Maximum temperature yesterday: 68 °F (at 4:30 PM)
Minimum temperature yesterday: 43 °F (at 4:30 AM)
Average temperature yesterday: 55 °F

Past Weeks' High & Low Weather Summary

 TemperatureHumidityPressure
High77 °F (Apr 30, 2:00 PM)100% (Apr 23, 11:00 AM)30.45 "Hg (Apr 23, 11:00 AM)
Low28 °F (Apr 27, 12:30 AM)8% (May 1, 4:00 PM)29.36 "Hg (Apr 23, 2:30 PM)
Average49 °F47%29.88 "Hg
* Reported Apr 20 11:00 PM — May 5 11:00 PM, Chelyabinsk, Weather by CustomWeather, © 2015

Note: Actual official high and low records may vary slightly from our data, if they occured in-between our weather recording intervals... More about our weather records

Advertising

Chelyabinsk weather history for previous 24 hours

 ConditionsComfort  
Time TempWeatherWind HumidityBarometerVisibility
11:00 PM
Tue, May 5
52 °FFog.3 mph100%29.77 "Hg2 mi
10:30 PM54 °FFog.3 mph94%29.77 "Hg2 mi
10:00 PM52 °FFog.6 mph94%29.77 "Hg2 mi
9:30 PM54 °FPassing clouds.6 mph94%29.77 "HgN/A
9:00 PM57 °FPassing clouds.8 mph77%29.77 "HgN/A
8:30 PM59 °FPassing clouds.1 mph72%29.77 "HgN/A
8:00 PM61 °FPassing clouds.3 mph63%29.77 "HgN/A
7:30 PM63 °FSunny.3 mph64%29.74 "Hg10 mi
7:00 PM64 °FSunny.8 mph56%29.77 "Hg10 mi
6:30 PM64 °FSunny.10 mph56%29.77 "Hg10 mi
6:00 PM64 °FSunny.8 mph52%29.77 "Hg10 mi
5:30 PM66 °FPassing clouds.10 mph49%29.77 "HgN/A
5:00 PM68 °FPassing clouds.8 mph43%29.77 "HgN/A
4:30 PM68 °FPassing clouds.8 mph38%29.77 "HgN/A
4:00 PM66 °FPassing clouds.3 mph43%29.77 "HgN/A
3:30 PM66 °FPassing clouds.3 mph43%29.77 "Hg4 mi
3:00 PM64 °FScattered clouds.1 mph46%29.77 "Hg4 mi
2:30 PM63 °FScattered clouds.1 mph49%29.80 "HgN/A
2:00 PM61 °FScattered clouds.No wind55%29.80 "HgN/A
1:30 PM57 °FSprinkles. Scattered clouds.6 mph72%29.80 "HgN/A
1:00 PM57 °FScattered clouds.6 mph67%29.80 "HgN/A
12:30 PM57 °FScattered clouds.No wind63%29.80 "HgN/A
12:00 PM55 °FScattered clouds.1 mph67%29.77 "HgN/A
11:30 AM55 °FSprinkles. Scattered clouds.1 mph67%29.80 "HgN/A
11:00 AM57 °FSprinkles. Scattered clouds.3 mph51%29.77 "HgN/A
10:30 AM59 °FScattered clouds.6 mph45%29.77 "HgN/A
10:00 AM59 °FScattered clouds.6 mph45%29.77 "HgN/A
9:30 AM55 °FScattered clouds.8 mph59%29.77 "HgN/A
9:00 AM54 °FScattered clouds.13 mph67%29.77 "HgN/A
8:30 AM52 °FScattered clouds.10 mph67%29.77 "HgN/A
8:00 AM50 °FScattered clouds.10 mph76%29.77 "HgN/A
7:30 AM48 °FPassing clouds.8 mph82%29.77 "HgN/A
7:00 AM48 °FPassing clouds.8 mph87%29.77 "HgN/A
6:30 AM46 °FClear.6 mph87%29.77 "Hg10 mi
6:00 AM45 °FClear.10 mph93%29.77 "Hg10 mi
5:30 AM45 °FClear.8 mph87%29.77 "Hg10 mi
5:00 AM45 °FClear.8 mph87%29.77 "Hg10 mi
4:30 AM43 °FClear.3 mph93%29.77 "Hg10 mi
4:00 AM45 °FClear.1 mph87%29.77 "Hg10 mi
3:30 AM45 °FClear.3 mph87%29.77 "Hg10 mi
3:00 AM45 °FClear.6 mph87%29.77 "Hg10 mi
2:00 AM45 °FClear.1 mph87%29.80 "Hg10 mi
1:30 AM45 °FClear.3 mph87%29.80 "Hg10 mi
1:00 AM46 °FClear.3 mph82%29.80 "Hg10 mi
12:30 AM46 °FClear.3 mph82%29.83 "Hg10 mi
12:00 AM48 °FClear.3 mph76%29.83 "Hg10 mi
Weather by CustomWeather, © 2015

See weather overviewHow to use our weather pages